Find Starlink 3088

NORAD ID: 49163 Int'l Des: 2021-082 Owner: SPXS Country: US Constellation: starlink operational
LEOCIRCULAR

当前视图

正在加载3D地球...

About Starlink 3088

Starlink 3088 (NORAD 49163) is a starlink constellation satellite (v1.5) launched Sep 14, 2021 by SPXS of US. It operates in LEO, CIRCULAR orbit with a mass of 297.00 kg.

关于 Starlink 3088

正在加载描述...

即将过境

Passes for default location (London). Set your location on the main map for personalized predictions.

高度历史

Loading altitude history...

两行轨道根数

1 49163U 21082AK 26194.75812005 -.00002420 00000-0 -19933-3 0 9994
2 49163 70.0002 317.7793 0003399 267.8463 92.2307 14.97515461266483
Epoch: Jul 13, 2026 • Age: 21 hours

当前状态

高度 577.7 km
远地点 / 近地点 N/A
速度 7.57 km/s
星下点 -4.87°S, 156.15°E
发射日期 Sep 14, 2021
运行时间 4.8 years
类型 internet

技术详情

分类 Payload
质量 297.00 kg
干质量 275.00 kg
总质量 297.00 kg
长度 0.20 m
直径 2.80 m
跨度 9.00 m
形状 Box + pan
制造商 SPXS
平台类型 Starlink
阶段状态 In Orbit
所有者/国家 SPXS/US

Most Searched